Regional Weather Roundup
Issued by NWS

Home | Current Version | Previous Version | Graphics & Text | Print | Product List | Glossary On
Versions: 1 2 3 4 5 6 7 8 9 10 11 12 13 14 15 16 17 18 19 20 21 22 23 24 25 26 27 28 29 30 31 32 33 34 35 36 37 38 39 40 41 42 43 44 45 46 47 48 49 50
808
ASUS43 KMKX 280321
RWRWI

WISCONSIN REGIONAL WEATHER ROUNDUP
NATIONAL WEATHER SERVICE MILWAUKEE/SULLIVAN WI
1000 PM CDT SAT MAY 27 2017

NOTE: "FAIR" INDICATES FEW OR NO CLOUDS BELOW 12,000 FEET WITH NO
SIGNIFICANT WEATHER AND/OR OBSTRUCTIONS TO VISIBILITY.

WIZ001-002-006>008-014>016-023>028-280400-
NORTHWEST WISCONSIN

CITY           SKY/WX    TMP DP  RH WIND       PRES   REMARKS
SUPERIOR ARPT  NOT AVBL
ASHLAND        MOCLDY    64  46  52 S7        29.79F
HAYWARD        PTCLDY    60  46  59 S5        29.83S
SIREN          MOCLDY    63  46  53 CALM      29.83S
CUMBERLAND     CLEAR     54  50  87 S5        29.85R
RICE LAKE      CLEAR     59  49  68 S3        29.86S
CHETEK         CLEAR     55  50  82 SW3       29.85S
LADYSMITH      CLOUDY    59  50  72 CALM      29.86F
EAU CLAIRE     PTCLDY    60  47  61 S5        29.84F
MENOMONIE      CLEAR     59  47  64 CALM      29.86R
NEW RICHMOND   PTCLDY    58  48  70 S6        29.85S
OSCEOLA        MOCLDY    62  52  70 S7        29.86S
$$

WIZ003>005-009-010-017-018-280400-
NORTH CENTRAL WISCONSIN

CITY           SKY/WX    TMP DP  RH WIND       PRES   REMARKS
MANITOWISH WTR PTCLDY    55  53  94 CALM      29.84S
ARBOR VITAE    MOCLDY    62  49  63 SW3       29.84F
WOODRUFF       MOCLDY    62  49  63 SW3       29.84F
RHINELANDER    CLOUDY    60  49  66 CALM      29.85F
EAGLE RIVER    PTCLDY    61  45  54 W5        29.84S
LAND O LAKES   PTCLDY    56  49  78 CALM      29.85S
PHILLIPS       PTCLDY    59  50  71 SW5       29.84F
TOMAHAWK       CLOUDY    57  51  79 CALM      29.85F
MEDFORD        CLOUDY    60  50  70 SW3       29.86S
MERRILL        CLOUDY    61  52  72 W3        29.85F
$$

WIZ029-030-035-036-043>047-280400-
CENTRAL WISCONSIN

CITY           SKY/WX    TMP DP  RH WIND       PRES   REMARKS
WAUSAU         CLOUDY    63  51  65 W8        29.84S
MOSINEE        CLOUDY    61  52  72 SW5       29.87S
MARSHFIELD     LGT RAIN  59  51  75 W7        29.85F
STEVENS POINT  CLOUDY    63  49  58 NW5       29.85F
WAUPACA        CLOUDY    67  52  58 NW5       29.83S
WAUTOMA        CLOUDY    63  57  82 MISG        N/A
WISC RAPIDS    LGT RAIN  60  54  80 W5        29.87R
CAMP DOUGLAS   CLOUDY    59  53  79 W6        29.85F
$$

WIZ011>013-019>022-031-037>040-048>050-280400-
NORTHEAST WISCONSIN

CITY           SKY/WX    TMP DP  RH WIND       PRES   REMARKS
ANTIGO         CLOUDY    60  51  70 W7        29.85F
SHAWANO        CLOUDY    67  52  58 W5        29.83S
OCONTO         CLOUDY    62  56  82 CALM      29.80F
STURGEON BAY   CLOUDY    61  53  75 S8        29.81F
GREEN BAY      CLOUDY    64  61  90 CALM      29.80F
MANITOWOC      CLOUDY    61  53  75 S5        29.83F
APPLETON       MOCLDY    64  52  63 VRB5      29.81F
CLINTONVILLE   CLOUDY    64  50  59 NW7       29.83S
OSHKOSH        CLOUDY    67  57  70 CALM      29.81F
$$

WIZ032>034-041-042-053>061-280400-
SOUTHWEST WISCONSIN

CITY           SKY/WX    TMP DP  RH WIND       PRES   REMARKS
LA CROSSE      CLOUDY    62  57  83 CALM      29.86S
SPARTA         CLOUDY    56  55  97 CALM      29.87S
VIROQUA        CLOUDY    59  51  75 CALM      29.87F
BOSCOBEL       CLOUDY    62  59  90 CALM      29.84S
PRAIRIE DU CHI CLOUDY    62  59  91 CALM      29.85S
PLATTEVILLE    CLOUDY    63  60  90 N3        29.85R
$$

WIZ056-057-062-063-064-067-068-280400-
SOUTH CENTRAL WISCONSIN

CITY           SKY/WX    TMP DP  RH WIND       PRES   REMARKS
REEDSBURG      LGT RAIN  63  58  83 CALM      29.85S
BARABOO/DELLS  LGT RAIN  64  54  70 W5        29.86R
LONE ROCK      CLOUDY    63  60  90 CALM      29.84S
MINERAL POINT  CLOUDY    63  61  94 N6        29.85F
MADISON        CLOUDY    67  56  67 NW3       29.83S
MIDDLETON      CLOUDY    67  58  73 NW3       29.85R
WATERTOWN      CLOUDY    65  60  83 CALM      29.84R
MONROE         CLOUDY    64  59  82 N8        29.83S
JANESVILLE     CLOUDY    68  63  83 CALM      29.84R
$$

WIZ051-052-058>065-066-070>072-280400-
SOUTHEAST WISCONSIN

CITY           SKY/WX    TMP DP  RH WIND       PRES   REMARKS
MILWAUKEE      CLOUDY    65  54  67 S5        29.84S
WAUKESHA       NOT AVBL
MILWAUKEE/TIMM   N/A     64  50  59 S3        29.85R
RACINE         CLOUDY    62  51  67 S3        29.86R
KENOSHA        CLOUDY    63  52  67 SE5       29.85R
FOND DU LAC    CLOUDY    68  52  56 SW5       29.82F
SHEBOYGAN      CLOUDY    60  54  80 S5        29.83F
WEST BEND      CLOUDY    61  55  82 CALM      29.84R
JUNEAU         CLOUDY    67  55  63 CALM      29.84S
$$

LSZ147-162-280400-
LAKE SUPERIOR

STATION/POSITION TIME  TEMP    WIND        PRES    WAVE
                       AIR SEA DIR/SP/G            HT/PER
                 (UTC) (F)     (DEG/KT/KT) (MB)    (FT/S)
W MID LAKE BUOY  0250   48 37  200/ 10/ 10 1008.7F   0
DEVILS ISLAND    0300   67     180/ 10/ 13 1007.7F
PORT WING        0230          200/  5/  7 1008.5F
SAXON HARBOR     0230   61     210/  4/  5 1008.8S
$$

LMZ867-665-643>646-280400-
LAKE MICHIGAN

STATION/POSITION TIME  TEMP    WIND        PRES    WAVE
                       AIR SEA DIR/SP/G            HT/PER
                 (UTC) (F)     (DEG/KT/KT) (MB)    (FT/S)
CHAMBERS ISLAND  0240   62     150/  4/  8 1008.8S
N MID LAKE BUOY  0250   47 42  190/ 10/ 10 1010.6F   1
NORTHPORT PIER   0240   61     170/  7/ 11 1009.1F
KEWAUNEE LAKESHO 0236   55     170/  4/  5 1009.5F
SHEBOYGAN LAKESH 0300   60     200/  7/  8 1009.9F
PORT WASHINGTON  0240   56      CALM  /  2 1011.2F
ATWATER BUOY     0209   54     150/  4/  4 1010.4F
MILWAUKEE LAKESH 0300   57     160/  2/  3   N/A
S MID LAKE BUOY  0250   53 50  100/  6/  6 1010.8F   0
KENOSHA   LAKESH 0300   58     150/  2/  2 1010.5
$$

TC  - TEMPERATURE IN CELSIUS
VSB - VISIBILITY IN STATUTE MILES
WCI - WIND CHILL INDEX
HX  - HEAT INDEX





USA.gov is the U.S. government's official web portal to all federal, state and local government web resources and services.